📊 Raw Sensor Data

Showing records 48551 to 48575 of 85,103 total

ID Distance (ft) Battery V Battery A Int Temp (°F) Int Humid (%) Ext Temp (°F) Solar V RSSI SNR Time Stamp
36565 15.0 4.00 0 47 40 47 4.50 -81 8 04/01/2025 08:00 AM
36564 14.9 4.05 0 46 40 47 4.50 -82 7 04/01/2025 07:45 AM
36563 15.0 4.03 9 46 40 46 4.50 -88 7 04/01/2025 07:30 AM
36562 15.0 3.89 0 45 41 46 4.50 -83 7 04/01/2025 07:15 AM
36561 15.0 3.83 -38 45 41 45 4.10 -81 8 04/01/2025 07:00 AM
36560 15.0 3.97 -5 45 41 46 1.10 -82 7 04/01/2025 06:45 AM
36559 15.0 3.85 -5 46 41 47 0.00 -82 8 04/01/2025 06:30 AM
36558 -- 3.85 -5 46 40 47 0.10 -83 8 04/01/2025 06:15 AM
36557 -- 3.97 -5 46 40 46 0.00 -83 7 04/01/2025 06:01 AM
36556 -- 3.85 -5 46 40 46 0.00 -84 8 04/01/2025 05:46 AM
36555 -- 3.86 -5 45 40 47 0.00 -78 7 04/01/2025 05:30 AM
36554 -- 3.97 -5 45 40 46 0.00 -77 8 04/01/2025 05:15 AM
36553 15.0 3.86 -5 45 40 46 0.10 -77 7 04/01/2025 05:00 AM
36552 -- 3.86 -5 45 40 46 0.00 -77 7 04/01/2025 04:45 AM
36551 -- 3.98 -5 45 40 46 0.00 -77 8 04/01/2025 04:30 AM
36550 -- 3.86 -5 44 40 46 0.00 -77 8 04/01/2025 04:15 AM
36549 -- 3.86 -5 44 40 45 0.00 -76 8 04/01/2025 04:00 AM
36548 -- 3.98 -5 44 40 45 0.00 -78 8 04/01/2025 03:45 AM
36547 -- 3.87 -5 45 40 46 0.00 -77 8 04/01/2025 03:30 AM
36546 -- 3.87 -5 45 40 46 0.00 -80 7 04/01/2025 03:15 AM
36545 -- 3.87 -5 44 40 46 0.00 -81 8 04/01/2025 03:00 AM
36544 -- 3.88 -5 44 40 46 0.00 -80 8 04/01/2025 02:45 AM
36543 -- 3.99 -5 43 40 44 0.00 -79 7 04/01/2025 02:30 AM
36542 -- 3.99 -5 43 40 43 0.00 -80 8 04/01/2025 02:15 AM
36541 -- 3.88 -5 44 40 44 0.00 -81 9 04/01/2025 02:01 AM